Voltar ao catálogo

ORBVIEW 1

MICROLAB

AtivoCiênciaLEO
NORAD 23547·PAYLOAD·🇺🇸 United States

Lançado Apr 3, 1995 de Vandenberg Space Force Base

Loading…

Próximas Passagens (próximas 24 horas)

TLE

AtualizadoSource: Space-Track

Época: Sep 14, 2026, 07:35 UTC

1 23547U 95017C   26257.31609195  .00000967  00000-0  18235-3 0  9993
2 23547  69.9778  10.4579 0010474 213.4509 146.5974 14.67613501671368

Acompanhe ORBVIEW 1 em tempo real com AllMySat

Download on the App Store